Location: Unspecified
(0.0000°N, 0.0000°E)
Time: 13:01:51
(UTC+02:00)

Cosmos 2263 Rocket - Visible Passes

Search period start: 23 October 2014 00:00
Search period end: 01 November 2014 23:00
Orbit: 825 x 848 km, 71.0° (Epoch: 22 October)

Date Brightness Start Highest point End Pass type
(mag) Time Alt. Az. Time Alt. Az. Time Alt. Az.
23 Oct 5.8 07:10:03 10° SE 07:11:47 11° ESE 07:13:30 10° E visible
23 Oct 5.4 21:36:38 10° W 21:38:53 12° WSW 21:41:07 10° SW visible
24 Oct 5.3 21:19:24 10° WNW 21:22:15 14° WSW 21:25:07 10° SW visible
25 Oct 5.3 21:02:19 10° WNW 21:05:38 16° WSW 21:08:58 10° SW visible
26 Oct 5.2 19:45:19 10° WNW 19:49:01 18° WSW 19:52:44 10° SSW visible
27 Oct 5.2 19:28:23 10° WNW 19:32:24 20° WSW 19:36:27 10° SSW visible
28 Oct 5.1 19:11:29 10° NW 19:15:47 23° WSW 19:20:06 10° SSW visible
29 Oct 2.2 06:10:11 10° SSW 06:15:47 90° SE 06:21:19 10° NNE visible
30 Oct 2.3 05:53:35 10° SSW 05:59:10 81° ESE 06:04:42 10° NNE visible
31 Oct 2.4 05:36:59 10° S 05:42:33 72° ESE 05:48:04 10° NNE visible
01 Nov 2.6 05:20:25 10° S 05:25:56 64° ESE 05:31:25 10° NNE visible
